{"data":{"norad_id":56912,"epoch":"2026-09-20T03:08:04.136352Z","epoch_age_seconds":149513,"freshness":"FRESH","line1":"1 56912U 23083AN  26263.13060343 -.00002150  00000+0 -68665-4 0  9992","line2":"2 56912  43.0043  52.7286 0001114 269.2517  90.8207 15.27558518181539","mean_motion":15.27558518,"eccentricity":0.0001114,"inclination_deg":43.0043,"raan_deg":52.7286,"arg_perigee_deg":269.2517,"mean_anomaly_deg":90.8207,"bstar":-6.8665e-5,"rev_number":18153,"period_min":94.268074383518,"perigee_km":482.34907833262,"apogee_km":483.87776492656,"semimajor_km":6861.2504216296,"source":"CELESTRAK","updated_at":"2026-09-21T09:00:33.527240Z"}}